Weather History for New Orleans Lakefront, LA

Change the Weather History Date:

Tuesday, July 30, 2013

  Actual Average Record
Temperature  
Mean Temperature 86 °F 83 °F  
Max Temperature 93 °F 92 °F 100 °F (1986)
Min Temperature 78 °F 75 °F 64 °F (1972)
Degree Days  
Heating Degree Days 0 0  
Month to date heating degree days 0 0  
Since 1 June heating degree days 0 0  
Since 1 July heating degree days 0 0  
Cooling Degree Days 21 18  
Month to date cooling degree days 525 540  
Year to date cooling degree days 1559 1654  
Since 1 June cooling degree days 1066 1035  
Growing Degree Days 36 (Base 50)    
Moisture  
Dew Point 75 °F    
Average Humidity 75    
Maximum Humidity 91    
Minimum Humidity 59    
Precipitation  
Precipitation 0.00 in 0.18 in 1.98 in (1953)
Month to date precipitation 3.97 5.75  
Year to date precipitation 43.09 38.05  
Snow  
Snow 0.00 in - - ()
Month to date snowfall 0.0  
Since 1 June snowfall 0.0  
Since 1 July snowfall 0.0  
Snow Depth 0.00 in    
Sea Level Pressure  
Sea Level Pressure 30.10 in    
Wind  
Wind Speed 5 mph (West)    
Max Wind Speed 16 mph    
Max Gust Speed 20 mph    
Visibility 10 miles    
Events      
T = Trace of Precipitation, MM = Missing Value Source: NWS Daily Summary

Daily Weather History Graph

Daily Weather History Graph

Search for Another Location

Airport:

Trip Planner

Search our weather history database for the weather conditions in past years. The results will help you decide how hot, cold, wet, or windy it might be!

Date:

Astronomy

Jul. 30, 2013 Rise Set
Actual Time 6:18 AM CDT 7:54 PM CDT
Civil Twilight 5:51 AM CDT 8:20 PM CDT
Nautical Twilight 5:20 AM CDT 8:51 PM CDT
Astronomical Twilight 4:47 AM CDT 9:24 PM CDT
Moon 12:32 AM CDT (7/30) 2:16 PM CDT (7/30)
Length of Visible Light 14h 28m
Length of Day
13h 36m
Last Quarter, 41% of the Moon is Illuminated
Jul 30
Last Quarter
Aug 6
New
Aug 14
First Quarter
Aug 20
Full
Aug 28
Last Quarter

Hourly Weather History & Observations

Time (CDT) Temp. Heat Index Dew Point Humidity Pressure Visibility Wind Dir Wind Speed Gust Speed Precip Events Conditions
12:53 AM 82.9 °F 91.8 °F 77.0 °F 82% 30.08 in 10.0 mi SW 5.8 mph - N/A   Clear
1:53 AM 82.9 °F 90.8 °F 75.9 °F 79% 30.08 in 10.0 mi SW 8.1 mph - N/A   Scattered Clouds
2:53 AM 82.9 °F 90.8 °F 75.9 °F 79% 30.07 in 10.0 mi SW 5.8 mph - N/A   Mostly Cloudy
3:53 AM 82.9 °F 91.8 °F 77.0 °F 82% 30.08 in 10.0 mi SW 6.9 mph - N/A   Mostly Cloudy
4:53 AM 82.9 °F 92.8 °F 78.1 °F 85% 30.09 in 10.0 mi West 10.4 mph - N/A   Clear
5:53 AM 84.0 °F 93.7 °F 77.0 °F 79% 30.10 in 10.0 mi WNW 10.4 mph - N/A   Clear
6:53 AM 84.0 °F 93.7 °F 77.0 °F 79% 30.11 in 9.0 mi NW 10.4 mph - N/A   Clear
7:53 AM 84.0 °F 91.9 °F 75.0 °F 74% 30.13 in 10.0 mi NW 9.2 mph - N/A   Scattered Clouds
8:34 AM 86.0 °F 95.1 °F 75.2 °F 70% 30.15 in 10.0 mi WNW 9.2 mph - N/A   Partly Cloudy
8:53 AM 86.0 °F 95.1 °F 75.0 °F 70% 30.13 in 10.0 mi WNW 8.1 mph - N/A   Clear
9:53 AM 87.1 °F 96.3 °F 75.0 °F 67% 30.14 in 9.0 mi NW 8.1 mph - N/A   Clear
10:53 AM 87.1 °F 96.3 °F 75.0 °F 67% 30.14 in 9.0 mi NW 6.9 mph - N/A   Scattered Clouds
11:53 AM 87.1 °F 97.3 °F 75.9 °F 69% 30.13 in 10.0 mi NW 8.1 mph - N/A   Partly Cloudy
12:53 PM 88.0 °F 95.6 °F 73.0 °F 61% 30.12 in 10.0 mi West 5.8 mph - N/A   Partly Cloudy
1:53 PM 90.0 °F 99.0 °F 73.9 °F 59% 30.10 in 9.0 mi WNW 8.1 mph - N/A   Clear
2:53 PM 90.0 °F 100.2 °F 75.0 °F 61% 30.09 in 10.0 mi NNW 6.9 mph - N/A   Scattered Clouds
3:53 PM 88.0 °F 97.5 °F 75.0 °F 65% 30.07 in 10.0 mi North 5.8 mph - N/A   Mostly Cloudy
4:53 PM 86.0 °F 96.0 °F 75.9 °F 72% 30.08 in 10.0 mi ESE 4.6 mph - N/A   Scattered Clouds
5:53 PM 87.1 °F 94.5 °F 73.0 °F 63% 30.07 in 10.0 mi Calm Calm - N/A   Clear
6:53 PM 87.1 °F 93.6 °F 72.0 °F 61% 30.06 in 10.0 mi SE 5.8 mph - N/A   Clear
7:29 PM 86.0 °F 95.1 °F 75.2 °F 70% 30.09 in 10.0 mi SSW 9.2 mph - N/A   Mostly Cloudy
7:39 PM 84.2 °F 92.3 °F 75.2 °F 74% 30.09 in 10.0 mi SW 10.4 mph - N/A   Mostly Cloudy
7:53 PM 84.9 °F 93.3 °F 75.0 °F 72% 30.07 in 10.0 mi SW 8.1 mph - N/A   Scattered Clouds
8:53 PM 84.0 °F 91.2 °F 73.9 °F 72% 30.08 in 10.0 mi SW 5.8 mph - N/A   Partly Cloudy
9:53 PM 82.9 °F 89.4 °F 73.9 °F 74% 30.08 in 10.0 mi SSW 6.9 mph - N/A   Clear
10:53 PM 82.9 °F 90.2 °F 75.0 °F 77% 30.08 in 10.0 mi SW 5.8 mph - N/A   Clear
11:53 PM 82.0 °F 87.9 °F 73.9 °F 76% 30.07 in 10.0 mi South 5.8 mph - N/A   Clear